User: anonymous   Login
Location: Unspecified
(0.0000°N, 0.0000°E)
Time: 08:50:15
(UTC+00:00)
Language:

NOSS 2-3 (C) - Orbit

View from above orbital plane
View from above orbital plane
View from above satellite
View from above satellite

Ground track
Ground track

The orbit data is extracted from the following two-line orbital elements,

1 23908U 96029C   17151.93673283 0.00000000  00000-0  00000-0 0    07
2 23908  63.3700  95.3502 0603000  12.3188 347.6812 13.40855335    07
Epoch (UTC): 31 May 2017 22:28:53
Eccentricity: 0.0603000
inclination: 63.3700°
perigee height: 655 km
apogee height: 1557 km
right ascension of ascending node: 95.3502°
argument of perigee: 12.3188°
revolutions per day: 13.40855335
mean anomaly at epoch: 347.6812°
orbit number at epoch: 0

The dashed part of the orbit path shows where the satellite is in the earth's shadow,  

DLR